Date String (YYYY-MM-DD hh:mm:ss) UTC,Instrument flags,absolute air pressure of the measurement (hPa),sample flow rate (lpm),inlet stack bypass flow (lpm),air temperature of the measurement (°C),ambient temperature measured by the external sensor (°C),aerosol sample conditioner tube jacket temperature (°C),OPC LED temperature (°C),internal box temperature (°C),relative humidity of the measurement (%),span deviation,mass concentration of particles derived from Lorenz-Mie calculation of OPC scattering (μg/m³),mass concentration of particles derived from Lorenz-Mie calculation of OPC scattering (μg/m³),mass concentration of particles derived from Lorenz-Mie calculation of OPC scattering (μg/m³)
DateTimeUTC,F1_M11,P_M11,Q1_M11,Q2_M11,T1_M11,T2_M11,T3_M11,T4_M11,T5_M11,U1_M11,ZSPAN_M11,X0_M11,X2_M11,X1_M11
2023-09-07 09:00:00,SystemResetWarning,0830.7,5.00,000.00,028.7,027.6,000.0,036.9,030.3,17.0,0000.0,0008.15,0002.44,0001.67
2023-09-07 09:01:00,SystemResetWarning,0830.8,5.01,000.00,028.7,027.6,000.0,037.0,030.3,16.9,0000.0,0007.81,0002.13,0001.43
2023-09-07 09:02:00,SystemResetWarning,0830.7,5.01,000.00,028.7,027.7,000.0,037.0,030.3,17.7,0000.0,0006.30,0001.76,0001.17
2023-09-07 09:03:00,SystemResetWarning,0830.7,5.00,000.00,028.7,027.4,000.0,037.0,030.3,18.1,0000.0,0006.02,0001.60,0001.06
2023-09-07 09:04:00,SystemResetWarning,0830.8,4.98,000.00,028.7,025.8,000.0,036.9,029.9,18.3,0000.0,0005.80,0001.49,0000.98
2023-09-07 09:05:00,SystemResetWarning,0830.8,5.00,000.00,028.6,024.9,000.0,036.9,029.7,19.2,0000.0,0006.17,0001.42,0000.95
2023-09-07 09:06:00,SystemResetWarning,0830.8,5.01,000.00,028.5,025.0,000.0,036.8,029.6,19.5,0000.0,0006.35,0001.34,0000.91
2023-09-07 09:07:00,SystemResetWarning,0830.7,5.00,000.00,028.4,025.2,000.0,036.8,029.6,18.8,0000.0,0005.93,0001.30,0000.91
2023-09-07 09:08:00,SystemResetWarning,0830.8,5.00,000.00,028.3,025.6,000.0,036.8,029.6,18.2,0000.0,0005.11,0001.30,0000.90
2023-09-07 09:09:00,SystemResetWarning,0830.9,5.00,000.00,028.3,025.9,000.0,036.8,029.7,18.0,0000.0,0005.12,0001.29,0000.89
2023-09-07 09:10:00,SystemResetWarning,0830.9,5.00,000.00,028.3,026.2,000.0,036.8,029.8,18.1,0000.0,0005.07,0001.27,0000.88
2023-09-07 09:11:00,SystemResetWarning,0830.9,4.99,000.00,028.3,026.4,000.0,036.8,029.8,17.4,0000.0,0003.95,0001.25,0000.86
2023-09-07 09:12:00,SystemResetWarning,0830.9,5.00,000.00,028.4,026.6,000.0,036.8,029.9,18.1,0000.0,0003.18,0001.26,0000.86
2023-09-07 09:13:00,SystemResetWarning,0830.9,5.00,000.00,028.4,026.8,000.0,036.8,030.0,17.2,0000.0,0003.46,0001.31,0000.85
2023-09-07 09:14:00,SystemResetWarning,0830.9,5.01,000.00,028.4,026.9,000.0,036.8,030.0,16.2,0000.0,0003.62,0001.35,0000.85
2023-09-07 09:15:00,SystemResetWarning,0830.9,5.00,000.00,028.4,027.1,000.0,036.8,030.0,16.4,0000.0,0003.60,0001.35,0000.85
2023-09-07 09:16:00,SystemResetWarning,0830.9,4.99,000.00,028.5,027.2,000.0,036.8,030.1,15.0,0000.0,0003.21,0001.34,0000.85
2023-09-07 09:17:00,SystemResetWarning,0830.8,4.99,000.00,028.5,027.3,000.0,036.8,030.1,14.4,0000.0,0002.91,0001.37,0000.85
2023-09-07 09:18:00,SystemResetWarning,0830.8,5.00,000.00,028.5,027.3,000.0,036.8,030.1,15.1,0000.0,0002.95,0001.37,0000.85
2023-09-07 09:19:00,SystemResetWarning,0830.7,5.00,000.00,028.5,027.4,000.0,036.9,030.2,15.5,0000.0,0003.25,0001.39,0000.87
2023-09-07 09:20:00,SystemResetWarning,0830.8,5.00,000.00,028.6,027.4,000.0,036.9,030.2,15.8,0000.0,0003.37,0001.42,0000.89
2023-09-07 09:21:00,SystemResetWarning,0830.9,5.00,000.00,028.6,027.5,000.0,036.9,030.2,16.3,0000.0,0003.52,0001.48,0000.90
2023-09-07 09:22:00,SystemResetWarning,0830.9,5.01,000.00,028.6,027.6,000.0,036.9,030.3,15.8,0000.0,0005.21,0001.56,0000.95
2023-09-07 09:23:00,SystemResetWarning,0830.9,5.01,000.00,028.7,027.6,000.0,036.9,030.3,15.7,0000.0,0006.57,0001.68,0001.03
2023-09-07 09:24:00,SystemResetWarning,0830.9,5.00,000.00,028.7,027.6,000.0,036.9,030.3,15.1,0000.0,0006.78,0001.77,0001.11
2023-09-07 09:25:00,SystemResetWarning,0830.8,4.99,000.00,028.7,027.6,000.0,037.0,030.4,15.5,0000.0,0006.88,0001.80,0001.17
2023-09-07 09:26:00,SystemResetWarning,0830.8,4.99,000.00,028.7,026.4,000.0,036.9,030.0,15.7,0000.0,0007.17,0001.89,0001.23
2023-09-07 09:27:00,SystemResetWarning,0830.7,5.00,000.00,028.6,025.0,000.0,036.9,029.6,16.1,0000.0,0007.32,0002.02,0001.33
2023-09-07 09:28:00,SystemResetWarning,0830.7,5.01,000.00,028.4,024.7,000.0,036.8,029.5,16.2,0000.0,0007.63,0002.28,0001.55
2023-09-07 09:29:00,SystemResetWarning,0830.8,5.01,000.00,028.3,025.0,000.0,036.8,029.4,16.0,0000.0,0007.98,0002.55,0001.80
2023-09-07 09:30:00,SystemResetWarning,0830.8,4.99,000.00,028.3,025.3,000.0,036.8,029.5,16.3,0000.0,0008.23,0002.78,0001.94
2023-09-07 09:31:00,SystemResetWarning,0830.9,4.99,000.00,028.3,025.6,000.0,036.8,029.6,16.3,0000.0,0008.15,0002.81,0001.98
2023-09-07 09:32:00,SystemResetWarning,0830.9,5.00,000.00,028.3,025.9,000.0,036.8,029.7,16.4,0000.0,0008.39,0003.02,0002.20
2023-09-07 09:33:00,SystemResetWarning,0830.9,5.00,000.00,028.3,026.2,000.0,036.8,029.7,15.9,0000.0,0008.54,0003.23,0002.42
2023-09-07 09:34:00,SystemResetWarning,0830.9,5.00,000.00,028.3,026.4,000.0,036.8,029.8,15.7,0000.0,0008.05,0003.36,0002.62
2023-09-07 09:35:00,SystemResetWarning,0830.9,5.01,000.00,028.3,026.6,000.0,036.8,029.8,16.0,0000.0,0008.20,0003.49,0002.88
2023-09-07 09:36:00,SystemResetWarning,0830.9,5.01,000.00,028.3,026.8,000.0,036.8,029.9,16.0,0000.0,0009.41,0003.66,0003.14
2023-09-07 09:37:00,SystemResetWarning,0830.9,5.00,000.00,028.4,026.9,000.0,036.8,029.9,16.1,0000.7,0010.09,0003.78,0003.26
2023-09-07 09:38:00,SystemResetWarning,0830.9,5.00,000.00,028.4,027.0,000.0,036.8,030.0,17.0,0000.1,0010.88,0003.91,0003.36
2023-09-07 09:39:00,SystemResetWarning,0830.9,4.99,000.00,028.4,027.1,000.0,036.8,030.0,16.5,0000.1,0010.97,0003.98,0003.42
2023-09-07 09:40:00,SystemResetWarning,0831.0,4.99,000.00,028.4,027.2,000.0,036.8,030.0,16.6,0000.2,0010.89,0004.03,0003.45
2023-09-07 09:41:00,SystemResetWarning,0831.0,5.00,000.00,028.5,027.3,000.0,036.8,030.1,16.9,0000.1,0011.76,0004.14,0003.54
2023-09-07 09:42:00,SystemResetWarning,0830.9,5.00,000.00,028.5,027.4,000.0,036.8,030.1,17.2,0000.4,0012.44,0004.33,0003.69
2023-09-07 09:43:00,SystemResetWarning,0830.9,5.01,000.00,028.5,027.4,000.0,036.8,030.2,17.2,0000.5,0013.11,0004.44,0003.76
2023-09-07 09:44:00,SystemResetWarning,0831.0,5.00,000.00,028.6,027.4,000.0,036.8,030.2,17.2,0000.1,0013.14,0004.44,0003.78
2023-09-07 09:45:00,SystemResetWarning,0831.0,5.00,000.00,028.6,027.5,000.0,036.9,030.2,17.6,0000.2,0012.97,0004.42,0003.79
2023-09-07 09:46:00,SystemResetWarning,0831.2,5.00,000.00,028.6,027.5,000.0,036.9,030.3,18.0,0000.3,0013.30,0004.44,0003.79
2023-09-07 09:47:00,SystemResetWarning,0831.1,5.00,000.00,028.6,027.5,000.0,036.9,030.3,18.6,0000.5,0012.36,0004.41,0003.74
2023-09-07 09:48:00,SystemResetWarning,0831.1,5.00,000.00,028.7,027.6,000.0,036.9,030.3,18.7,0000.8,0011.73,0004.42,0003.73
2023-09-07 09:49:00,SystemResetWarning,0831.1,5.00,000.00,028.7,027.2,000.0,036.9,030.2,18.5,0001.2,0011.43,0004.43,0003.74
2023-09-07 09:50:00,SystemResetWarning,0831.1,4.99,000.00,028.6,025.3,000.0,036.9,029.8,18.2,0001.2,0011.17,0004.37,0003.71
2023-09-07 09:51:00,SystemResetWarning,0831.1,5.01,000.00,028.5,024.5,000.0,036.8,029.6,18.2,0001.2,0010.95,0004.32,0003.67
2023-09-07 09:52:00,SystemResetWarning,0831.1,5.01,000.00,028.4,024.7,000.0,036.8,029.4,19.0,0001.4,0009.87,0004.17,0003.57
2023-09-07 09:53:00,SystemResetWarning,0831.1,5.00,000.00,028.3,025.0,000.0,036.7,029.4,18.5,0001.5,0009.23,0004.03,0003.47
2023-09-07 09:54:00,SystemResetWarning,0831.2,5.00,000.00,028.2,025.3,000.0,036.7,029.5,18.2,0001.8,0008.89,0003.92,0003.39
2023-09-07 09:55:00,SystemResetWarning,0831.0,5.00,000.00,028.2,025.7,000.0,036.7,029.6,18.3,0001.8,0008.37,0003.84,0003.33
2023-09-07 09:56:00,SystemResetWarning,0830.9,5.00,000.00,028.2,026.0,000.0,036.7,029.7,18.6,0001.8,0008.83,0003.81,0003.29
2023-09-07 09:57:00,SystemResetWarning,0830.9,5.00,000.00,028.3,026.2,000.0,036.7,029.8,19.0,0001.6,0009.15,0003.79,0003.27
2023-09-07 09:58:00,SystemResetWarning,0830.9,5.00,000.00,028.3,026.5,000.0,036.7,029.8,19.8,0001.1,0009.36,0003.76,0003.26
2023-09-07 09:59:00,SystemResetWarning,0830.9,5.01,000.00,028.3,026.6,000.0,036.7,029.9,19.9,0000.8,0009.32,0003.72,0003.22
